AD8BW Weather Reports


time (UTC)temp
F
wind
direction
speed
knots
gust
knots
rain 1hr
in
rain 24hr
in
rain mn
in
humidity
%
barometer
mb
20260906010852 65 5 0.0 0.0 0.00 0.01 0.01 81 1016.3
20260906005856 66 5 0.0 0.0 0.00 0.01 0.01 80 1016.3
20260906004851 67 5 0.0 0.0 0.00 0.01 0.01 79 1016.2
20260906003853 67 5 0.0 3.5 0.00 0.01 0.01 78 1016.2
20260906002851 67 348 0.0 3.5 0.00 0.01 0.01 76 1016.2
20260906001850 68 17 1.7 4.3 0.00 0.01 0.01 75 1016.2
20260906000850 68 37 1.7 3.5 0.00 0.01 0.01 75 1016.1
20260905235851 69 9 1.7 3.5 0.00 0.01 0.01 74 1016.0
20260905234850 69 355 0.0 3.5 0.00 0.01 0.01 73 1016.0
20260905233849 70 9 1.7 4.3 0.00 0.01 0.01 72 1015.9
20260905232848 71 27 1.7 3.5 0.00 0.01 0.01 71 1015.9
20260905231851 71 355 3.5 6.1 0.00 0.01 0.01 71 1016.0
20260905230851 72 37 3.5 6.1 0.00 0.01 0.01 71 1016.0
20260905225852 72 32 1.7 6.1 0.00 0.01 0.01 71 1015.8
20260905224851 73 33 1.7 4.3 0.00 0.01 0.01 71 1015.8
20260905223849 73 355 1.7 6.1 0.00 0.01 0.01 69 1015.6
20260905222851 74 343 1.7 4.3 0.00 0.01 0.01 68 1015.5
20260905221853 74 40 1.7 6.1 0.00 0.01 0.01 66 1015.4
20260905220849 74 355 1.7 4.3 0.00 0.01 0.01 65 1015.4
20260905215851 74 5 1.7 4.3 0.00 0.01 0.01 64 1015.4
20260905214853 74 40 1.7 4.3 0.00 0.01 0.01 63 1015.2
20260905213853 74 53 3.5 7.8 0.00 0.01 0.01 64 1015.2
20260905212854 75 351 3.5 6.1 0.00 0.01 0.01 64 1015.4
20260905211850 75 0 3.5 6.1 0.00 0.01 0.01 64 1015.4
20260905210854 75 42 3.5 6.1 0.00 0.01 0.01 64 1015.2
20260905205853 75 342 1.7 6.1 0.00 0.01 0.01 65 1015.1
20260905204845 75 355 1.7 6.1 0.00 0.01 0.01 63 1015.1
20260905203845 76 53 1.7 6.1 0.00 0.01 0.01 61 1015.1
20260905202844 76 64 1.7 6.1 0.00 0.01 0.01 61 1015.2
20260905201845 76 5 0.0 4.3 0.00 0.01 0.01 63 1015.4
20260905200846 76 0 1.7 4.3 0.00 0.01 0.01 61 1015.4
20260905195843 76 40 1.7 4.3 0.00 0.01 0.01 60 1015.5
20260905194846 76 57 3.5 4.3 0.00 0.01 0.01 60 1015.6
20260905193845 76 49 1.7 6.1 0.00 0.01 0.01 62 1015.4
20260905192853 76 46 3.5 6.1 0.00 0.01 0.01 60 1015.5
20260905191844 76 46 1.7 6.1 0.00 0.01 0.01 62 1015.7
20260905190839 76 45 1.7 4.3 0.00 0.01 0.01 62 1015.7
20260905185838 76 42 3.5 6.1 0.00 0.01 0.01 63 1015.7
20260905184836 76 13 1.7 4.3 0.00 0.01 0.01 65 1015.7
20260905183836 76 28 3.5 6.1 0.00 0.01 0.01 64 1015.7
20260905182836 76 11 1.7 7.8 0.00 0.01 0.01 66 1015.7
20260905181838 75 5 1.7 6.1 0.00 0.01 0.01 68 1015.7
20260905180837 75 59 1.7 4.3 0.01 0.01 0.01 68 1015.8
20260905175840 75 19 1.7 4.3 0.01 0.01 0.01 68 1015.6
20260905174832 75 55 1.7 4.3 0.01 0.01 0.01 67 1015.7
20260905173832 75 56 1.7 7.8 0.01 0.01 0.01 65 1015.7
20260905172833 75 53 1.7 4.3 0.01 0.01 0.01 69 1015.7
20260905171831 75 45 1.7 4.3 0.01 0.01 0.01 68 1015.7
20260905170831 75 36 1.7 4.3 0.00 0.00 0.00 67 1015.8
20260905165829 75 44 0.0 4.3 0.00 0.00 0.00 68 1015.9
20260905164831 74 51 1.7 6.1 0.00 0.00 0.00 70 1015.9
20260905163831 74 0 1.7 4.3 0.00 0.00 0.00 70 1015.8
20260905162833 74 74 1.7 4.3 0.00 0.00 0.00 70 1015.8
20260905161832 74 42 1.7 4.3 0.00 0.00 0.00 72 1015.9
20260905160826 74 346 1.7 4.3 0.00 0.00 0.00 69 1015.9
20260905155830 73 42 1.7 6.1 0.00 0.00 0.00 71 1015.8
20260905154828 74 45 1.7 4.3 0.00 0.00 0.00 70 1015.8
20260905153827 73 66 1.7 4.3 0.00 0.00 0.00 70 1015.7
20260905152829 73 44 1.7 4.3 0.00 0.00 0.00 71 1015.6
20260905151827 73 41 1.7 6.1 0.00 0.00 0.00 69 1015.5
20260905150828 72 58 1.7 6.1 0.00 0.00 0.00 71 1015.5
20260905145828 72 45 0.0 3.5 0.00 0.00 0.00 73 1015.5
20260905144826 71 53 0.0 3.5 0.00 0.00 0.00 74 1015.4
20260905143830 70 30 0.0 4.3 0.00 0.01 0.00 78 1015.2
20260905142827 69 46 1.7 4.3 0.00 0.02 0.00 80 1015.2
20260905141825 68 48 1.7 4.3 0.00 0.03 0.00 83 1015.2
20260905140824 68 48 1.7 3.5 0.00 0.04 0.00 84 1015.2
20260905135828 67 45 0.0 3.5 0.00 0.05 0.00 86 1015.4
20260905134823 67 40 0.0 3.5 0.00 0.05 0.00 86 1015.2
20260905133823 67 52 1.7 3.5 0.00 0.06 0.00 87 1015.4
20260905132818 67 51 1.7 4.3 0.00 0.06 0.00 88 1015.2
20260905131818 67 64 0.0 4.3 0.00 0.06 0.00 89 1015.5
20260905130816 66 49 0.0 0.0 0.00 0.07 0.00 89 1015.4
20260905125818 66 49 0.0 0.0 0.00 0.07 0.00 90 1015.1
20260905124817 66 51 0.0 3.5 0.00 0.08 0.00 91 1015.2
20260905123818 65 51 0.0 3.5 0.00 0.08 0.00 92 1015.2
20260905122817 65 40 0.0 3.5 0.00 0.08 0.00 92 1015.1
20260905121816 65 49 1.7 3.5 0.00 0.08 0.00 93 1014.9
20260905120820 66 57 0.0 4.3 0.00 0.08 0.00 93 1015.0
20260905115815 66 49 0.0 3.5 0.00 0.08 0.00 93 1014.9
20260905114815 66 49 0.0 4.3 0.00 0.08 0.00 93 1014.9
20260905113813 66 54 0.0 3.5 0.00 0.08 0.00 94 1014.8
20260905112810 66 41 1.7 4.3 0.00 0.08 0.00 93 1014.8
20260905111810 66 42 0.0 3.5 0.00 0.08 0.00 93 1014.8
20260905110811 66 42 0.0 3.5 0.00 0.08 0.00 93 1014.7
20260905105813 66 30 0.0 0.0 0.00 0.08 0.00 93 1014.6
20260905104812 66 30 0.0 0.0 0.00 0.08 0.00 94 1014.7
20260905103812 66 11 0.0 0.0 0.00 0.08 0.00 93 1014.7
20260905102808 66 11 0.0 0.0 0.00 0.08 0.00 94 1014.7
20260905101807 66 329 0.0 0.0 0.00 0.08 0.00 94 1014.6
20260905100808 66 49 0.0 0.0 0.00 0.08 0.00 94 1014.4
20260905095809 66 49 0.0 0.0 0.00 0.08 0.00 93 1014.5
20260905094807 66 49 0.0 0.0 0.00 0.08 0.00 93 1014.4
20260905093806 66 49 0.0 0.0 0.00 0.08 0.00 93 1014.7
20260905092807 67 49 0.0 0.0 0.00 0.08 0.00 93 1014.8
20260905091808 67 49 0.0 0.0 0.00 0.08 0.00 93 1014.7
20260905090813 67 49 0.0 0.0 0.00 0.08 0.00 93 1014.6
20260905085807 67 49 0.0 0.0 0.00 0.08 0.00 93 1014.3
20260905084805 67 49 0.0 0.0 0.00 0.08 0.00 93 1014.3
20260905083807 67 49 0.0 0.0 0.00 0.08 0.00 93 1014.2
20260905082803 67 49 0.0 0.0 0.00 0.08 0.00 93 1014.1
20260905081804 67 49 0.0 0.0 0.00 0.08 0.00 93 1013.9
20260905080806 67 48 0.0 0.0 0.00 0.08 0.00 93 1014.0
20260905075801 67 48 0.0 0.0 0.00 0.08 0.00 93 1014.0
20260905074803 67 48 0.0 0.0 0.00 0.08 0.00 93 1014.5
20260905073801 67 48 0.0 0.0 0.00 0.08 0.00 93 1014.5
20260905072803 67 48 0.0 0.0 0.00 0.08 0.00 93 1014.2
20260905071803 67 48 0.0 0.0 0.00 0.08 0.00 93 1014.0
20260905070802 67 48 0.0 0.0 0.00 0.08 0.00 93 1014.2
20260905065757 67 48 0.0 3.5 0.00 0.08 0.00 92 1014.2
20260905064755 67 48 0.0 3.5 0.00 0.08 0.00 92 1013.7
20260905063758 67 48 1.7 4.3 0.00 0.08 0.00 92 1013.7
20260905062758 67 41 0.0 4.3 0.00 0.08 0.00 92 1013.9
20260905061754 67 42 1.7 3.5 0.00 0.08 0.00 92 1014.0
20260905060755 67 53 0.0 3.5 0.00 0.08 0.00 92 1014.2
20260905055750 67 42 0.0 0.0 0.00 0.08 0.00 92 1014.3
20260905054750 67 45 0.0 0.0 0.00 0.08 0.00 92 1014.6
20260905053752 67 45 0.0 0.0 0.00 0.08 0.00 92 1014.7
20260905052750 68 45 0.0 0.0 0.00 0.08 0.00 92 1014.6
20260905051751 68 45 0.0 0.0 0.00 0.08 0.00 92 1014.4
20260905050751 68 45 0.0 0.0 0.00 0.08 0.00 92 1014.3
20260905045754 68 45 0.0 0.0 0.00 0.08 0.00 92 1014.4
20260905044749 68 45 0.0 0.0 0.00 0.08 0.00 92 1014.4
20260905043752 69 45 0.0 0.0 0.00 0.08 0.00 92 1014.5
20260905042744 69 45 0.0 0.0 0.00 0.08 0.00 92 1014.5
20260905041745 69 45 0.0 0.0 0.00 0.08 0.00 92 1014.5
20260905040743 69 45 0.0 0.0 0.00 0.08 0.00 92 1014.6
20260905035744 69 45 0.0 0.0 0.00 0.08 0.08 92 1014.6
20260905034741 69 45 0.0 0.0 0.00 0.08 0.08 92 1014.7
20260905033744 69 45 0.0 0.0 0.00 0.08 0.08 92 1014.9
20260905032744 70 45 0.0 0.0 0.00 0.08 0.08 92 1014.9
20260905031740 70 45 0.0 0.0 0.00 0.08 0.08 92 1015.2
20260905030737 70 41 0.0 0.0 0.00 0.08 0.08 92 1015.4
20260905025736 70 41 0.0 0.0 0.00 0.08 0.08 92 1015.2
20260905024736 70 46 0.0 1.7 0.00 0.08 0.08 92 1015.1
20260905023735 71 46 0.0 3.5 0.00 0.08 0.08 92 1015.0
20260905022732 71 46 0.0 3.5 0.00 0.08 0.08 92 1015.0
20260905021730 71 46 0.0 1.7 0.00 0.08 0.08 92 1015.1
20260905020733 71 46 0.0 3.5 0.00 0.08 0.08 91 1015.1
20260905015732 71 52 0.0 0.0 0.00 0.08 0.08 91 1015.1
20260905014730 71 52 0.0 1.7 0.00 0.08 0.08 91 1015.4
20260905013729 71 52 0.0 1.7 0.00 0.08 0.08 91 1015.2
20260905012729 72 52 1.7 4.3 0.00 0.08 0.08 91 1015.2